Back to catalog

STARLINK-4415

AliveCommunicationsSSO
NORAD 53465·PAYLOAD·🇺🇸 United States

Launched Aug 12, 2022 from Vandenberg Space Force Base

Loading…

Next Passes (next 24 hours)

TLE

FreshSource: CelesTrak SupGP

Epoch: Sep 14, 2026, 14:06 UTC

1 53465C 22099A   26257.58798611  .00009961  00000+0  30930-3 0  2571
2 53465  97.2863  15.2689 0000889  87.5411 289.2434 15.33426338    13

Track STARLINK-4415 in real time with AllMySat

Download on the App Store